Three Rivers, MI

8:42 PM EST on December 07, 2016 (GMT -0500)
Three Rivers Municipal-Haines

Weather History for KHAI - October, 2012

Change the Weather History Date:

Wednesday, October 24, 2012

  Actual Average Record
Temperature  
Mean Temperature 68 °F -  
Max Temperature 77 °F 60 °F 78 °F (1963)
Min Temperature 58 °F 37 °F 22 °F (1969)
Cooling Degree Days 2    
Growing Degree Days 18 (Base 50)    
Moisture  
Dew Point 59 °F    
Average Humidity 76    
Maximum Humidity 93    
Minimum Humidity 55    
Precipitation  
Precipitation 0.00 in - - ()
Sea Level Pressure  
Sea Level Pressure 29.97 in    
Wind  
Wind Speed 5 mph (South)    
Max Wind Speed 15 mph    
Max Gust Speed 18 mph    
Visibility 9 miles    
Events Rain    
Averages and records for this station are not official NWS values.
T = Trace of Precipitation, MM = Missing Value Source: NWS Daily Summary

Daily Weather History Graph

Daily Weather History Graph

Search for Another Location

Airport or City:

Trip Planner

Search our weather history database for the weather conditions in past years. The results will help you decide how hot, cold, wet, or windy it might be!

Date:

Astronomy

Oct. 24, 2012 Rise Set
Actual Time 8:05 AM EDT 6:46 PM EDT
Civil Twilight 7:37 AM EDT 7:15 PM EDT
Nautical Twilight 7:04 AM EDT 7:47 PM EDT
Astronomical Twilight 6:32 AM EDT 8:19 PM EDT
Moon 4:06 PM EDT (10/24) 2:55 AM EDT (10/24)
Length of Visible Light 11h 37m
Length of Day
10h 40m
Waxing Gibbous, 76% of the Moon is Illuminated
Oct 24
Waxing Gibbous
Oct 29
Full
Nov 6
Last Quarter
Nov 13
New
Nov 20
First Quarter

Hourly Weather History & Observations

Time (EDT) Temp. Dew Point Humidity Pressure Visibility Wind Dir Wind Speed Gust Speed Precip Events Conditions
12:13 AM 59.4 °F 57.2 °F 93% 29.99 in 5.0 mi Calm Calm - N/A   Mostly Cloudy
12:34 AM 59.7 °F 57.6 °F 93% 29.99 in 7.0 mi Calm Calm - N/A   Overcast
12:53 AM 60.6 °F 58.3 °F 92% 29.99 in 7.0 mi Calm Calm - N/A   Overcast
1:13 AM 61.0 °F 59.0 °F 93% 29.99 in 7.0 mi Calm Calm - N/A   Overcast
1:34 AM 61.7 °F 59.2 °F 91% 29.99 in 7.0 mi Calm Calm - N/A   Light Drizzle
2:14 AM 61.7 °F 59.2 °F 91% 29.99 in 7.0 mi South 4.6 mph - N/A Rain Light Rain
2:34 AM 61.7 °F 59.0 °F 91% 29.99 in 7.0 mi South 3.5 mph - N/A   Overcast
2:53 AM 61.7 °F 59.0 °F 91% 29.98 in 7.0 mi Calm Calm - N/A   Overcast
3:14 AM 61.7 °F 58.8 °F 90% 29.98 in 7.0 mi South 3.5 mph - N/A   Overcast
3:34 AM 61.3 °F 58.3 °F 90% 29.98 in 7.0 mi SSE 3.5 mph - N/A   Mostly Cloudy
3:53 AM 61.2 °F 58.3 °F 90% 29.98 in 7.0 mi South 4.6 mph - N/A   Mostly Cloudy
4:14 AM 60.8 °F 57.6 °F 89% 29.97 in 7.0 mi Calm Calm - N/A   Mostly Cloudy
4:34 AM 60.8 °F 57.7 °F 90% 29.97 in 10.0 mi South 3.5 mph - N/A   Mostly Cloudy
4:53 AM 61.0 °F 58.1 °F 90% 29.97 in 10.0 mi South 3.5 mph - N/A   Overcast
5:14 AM 61.2 °F 58.1 °F 90% 29.97 in 10.0 mi South 3.5 mph - N/A   Overcast
5:34 AM 61.2 °F 57.9 °F 89% 29.97 in 10.0 mi South 3.5 mph - N/A   Overcast
5:53 AM 61.2 °F 58.1 °F 90% 29.98 in 10.0 mi SSW 4.6 mph - N/A   Overcast
6:14 AM 60.8 °F 57.4 °F 88% 29.98 in 10.0 mi SSW 4.6 mph - N/A   Mostly Cloudy
6:33 AM 59.9 °F 56.7 °F 89% 29.99 in 10.0 mi SSW 3.5 mph - N/A   Mostly Cloudy
6:54 AM 58.8 °F 56.1 °F 91% 29.99 in 7.0 mi Calm Calm - N/A   Scattered Clouds
7:14 AM 58.5 °F 55.8 °F 91% 29.99 in 10.0 mi Calm Calm - N/A   Clear
7:33 AM 58.5 °F 55.9 °F 91% 29.98 in 10.0 mi South 4.6 mph - N/A   Clear
7:54 AM 59.9 °F 56.5 °F 88% 30.00 in 10.0 mi SSW 3.5 mph - N/A   Clear
8:14 AM 58.6 °F 55.8 °F 90% 30.00 in 10.0 mi South 5.8 mph - N/A   Clear
8:33 AM 59.9 °F 56.5 °F 88% 30.00 in 10.0 mi South 4.6 mph - N/A   Clear
8:54 AM 60.6 °F 56.7 °F 87% 30.01 in 10.0 mi SW 3.5 mph - N/A   Clear
9:13 AM 61.9 °F 57.2 °F 85% 30.01 in 10.0 mi SW 4.6 mph - N/A   Clear
9:34 AM 63.5 °F 57.7 °F 81% 30.01 in 10.0 mi SSW 6.9 mph - N/A   Clear
9:54 AM 64.6 °F 58.1 °F 79% 30.01 in 10.0 mi South 6.9 mph - N/A   Clear
10:34 AM 66.9 °F 58.1 °F 73% 30.01 in 10.0 mi SSW 9.2 mph - N/A   Clear
10:54 AM 68.2 °F 58.3 °F 71% 30.01 in 10.0 mi SW 4.6 mph - N/A   Clear
11:13 AM 69.3 °F 58.6 °F 69% 30.00 in 10.0 mi South 8.1 mph - N/A   Clear
11:34 AM 70.3 °F 58.8 °F 67% 30.00 in 10.0 mi South 8.1 mph - N/A   Clear
11:54 AM 71.6 °F 59.2 °F 65% 30.00 in 10.0 mi SSW 8.1 mph - N/A   Clear
12:13 PM 72.0 °F 59.4 °F 64% 30.00 in 10.0 mi SSW 8.1 mph - N/A   Clear
12:34 PM 73.0 °F 59.9 °F 63% 30.00 in 10.0 mi SSW 10.4 mph - N/A   Clear
12:53 PM 72.9 °F 60.1 °F 64% 29.99 in 10.0 mi SSW 9.2 mph - N/A   Clear
1:14 PM 74.1 °F 60.1 °F 61% 29.98 in 10.0 mi South 8.1 mph - N/A   Clear
1:34 PM 75.2 °F 60.6 °F 60% 29.97 in 10.0 mi South 9.2 mph - N/A   Clear
1:53 PM 75.4 °F 60.8 °F 60% 29.97 in 10.0 mi SSW 10.4 mph - N/A   Clear
2:14 PM 75.4 °F 60.4 °F 60% 29.97 in 10.0 mi South 12.7 mph - N/A   Clear
2:33 PM 76.1 °F 60.6 °F 59% 29.97 in 10.0 mi SSW 12.7 mph - N/A   Scattered Clouds
2:54 PM 76.3 °F 60.6 °F 58% 29.96 in 10.0 mi South 8.1 mph - N/A   Scattered Clouds
3:14 PM 76.6 °F 60.3 °F 57% 29.95 in 10.0 mi South 11.5 mph - N/A   Clear
3:33 PM 77.5 °F 60.6 °F 56% 29.95 in 10.0 mi SSW 11.5 mph - N/A   Clear
3:54 PM 77.5 °F 60.4 °F 55% 29.95 in 10.0 mi South 15.0 mph 18.4 mph N/A   Clear
4:14 PM 77.2 °F 60.4 °F 56% 29.94 in 10.0 mi South 10.4 mph 16.1 mph N/A   Clear
4:33 PM 77.5 °F 60.8 °F 56% 29.94 in 10.0 mi South 12.7 mph 17.3 mph N/A   Clear
4:54 PM 77.2 °F 60.3 °F 56% 29.94 in 10.0 mi South 11.5 mph - N/A   Clear
5:14 PM 77.0 °F 60.6 °F 57% 29.94 in 10.0 mi South 11.5 mph - N/A   Clear
5:33 PM 76.3 °F 60.4 °F 58% 29.94 in 10.0 mi South 10.4 mph - N/A   Clear
5:54 PM 75.7 °F 60.4 °F 59% 29.94 in 10.0 mi South 9.2 mph - N/A   Clear
6:13 PM 73.8 °F 60.6 °F 63% 29.94 in 10.0 mi South 6.9 mph - N/A   Clear
6:34 PM 73.4 °F 60.4 °F 64% 29.94 in 10.0 mi South 8.1 mph - N/A   Clear
6:54 PM 72.7 °F 60.4 °F 65% 29.95 in 10.0 mi South 8.1 mph - N/A   Clear
7:13 PM 72.0 °F 60.4 °F 67% 29.95 in 10.0 mi South 6.9 mph - N/A   Clear
7:34 PM 70.9 °F 60.8 °F 70% 29.95 in 10.0 mi South 8.1 mph - N/A   Clear
7:54 PM 70.2 °F 60.8 °F 72% 29.95 in 10.0 mi South 6.9 mph - N/A   Clear
8:13 PM 69.6 °F 60.8 °F 73% 29.95 in 10.0 mi South 8.1 mph - N/A   Clear
8:34 PM 69.3 °F 60.3 °F 73% 29.96 in 10.0 mi South 6.9 mph - N/A   Clear
8:53 PM 69.1 °F 59.9 °F 72% 29.96 in 10.0 mi South 8.1 mph - N/A   Clear
9:14 PM 68.0 °F 59.4 °F 74% 29.96 in 10.0 mi South 5.8 mph - N/A   Clear
9:34 PM 67.3 °F 59.2 °F 75% 29.96 in 10.0 mi South 6.9 mph - N/A   Clear
9:53 PM 67.5 °F 59.0 °F 74% 29.96 in 10.0 mi South 6.9 mph - N/A   Clear
10:14 PM 66.9 °F 58.5 °F 74% 29.96 in 10.0 mi South 6.9 mph - N/A   Clear
10:34 PM 66.2 °F 58.3 °F 76% 29.96 in 10.0 mi South 5.8 mph - N/A   Clear
10:53 PM 66.2 °F 58.5 °F 76% 29.96 in 10.0 mi South 8.1 mph - N/A   Clear
11:14 PM 65.3 °F 58.1 °F 77% 29.96 in 10.0 mi South 6.9 mph - N/A   Clear
11:34 PM 64.0 °F 57.6 °F 79% 29.96 in 10.0 mi South 6.9 mph - N/A   Clear
11:53 PM 64.8 °F 57.2 °F 76% 29.96 in 10.0 mi South 8.1 mph - N/A   Clear